This is the latest recevied weather packets stored in our database for station/object EA1RCG-11. If no packets are shown the sender has not sent any weather packets the latest 10 day(s).
| Time | Temp. | Humidity | Pressure | Rain* | Wind** | Luminosity | Snow |
|---|---|---|---|---|---|---|---|
| 1777698262 | 16.67° C | 63% | 979.7 hPa | - | - | - | - |
| 1777696462 | 16.67° C | 62% | 979.6 hPa | - | - | - | - |
| 1777694662 | 16.67° C | 63% | 979.6 hPa | - | - | - | - |
| 1777692862 | 17.22° C | 62% | 979.8 hPa | - | - | - | - |
| 1777691061 | 17.22° C | 62% | 979.9 hPa | - | - | - | - |
| 1777689261 | 17.22° C | 63% | 979.9 hPa | - | - | - | - |
| 1777687461 | 17.22° C | 62% | 979.8 hPa | - | - | - | - |
| 1777685661 | 17.22° C | 62% | 980.2 hPa | - | - | - | - |
| 1777683861 | 17.78° C | 61% | 980.2 hPa | - | - | - | - |
| 1777682061 | 17.78° C | 61% | 980.4 hPa | - | - | - | - |
| 1777680261 | 18.33° C | 61% | 980.6 hPa | - | - | - | - |
| 1777678461 | 18.33° C | 61% | 980.7 hPa | - | - | - | - |
| 1777676661 | 17.78° C | 61% | 981.1 hPa | - | - | - | - |
| 1777674860 | 18.33° C | 61% | 981.3 hPa | - | - | - | - |
| 1777673060 | 18.33° C | 61% | 981.5 hPa | - | - | - | - |
| 1777671260 | 18.89° C | 60% | 981.7 hPa | - | - | - | - |
| 1777669460 | 18.89° C | 60% | 981.7 hPa | - | - | - | - |
| 1777667660 | 19.44° C | 59% | 981.5 hPa | - | - | - | - |
| 1777665860 | 19.44° C | 60% | 981.3 hPa | - | - | - | - |
| 1777664060 | 20° C | 59% | 981.1 hPa | - | - | - | - |
| 1777662260 | 20° C | 59% | 981 hPa | - | - | - | - |
| 1777660460 | 21.11° C | 58% | 980.9 hPa | - | - | - | - |
| 1777658660 | 21.67° C | 57% | 980.8 hPa | - | - | - | - |
| 1777656859 | 22.22° C | 56% | 980.8 hPa | - | - | - | - |
| 1777655059 | 23.33° C | 55% | 980.6 hPa | - | - | - | - |
* Rain since midnight (hover to see other rain measurements)
** Current wind speed in m/s (hover to see current wind gust speed)